contact:dominique.lefevre@mio.osupytheas.fr, maurice.libes@osupytheas.fr, didier.mallarino@osupytheas.fr
Project:EMSO http://www.emso-fr.org/EMSO-France
Depth: 2436.0 m
Title:EMSO Ligure Ouest : Data MII capteur MICROCAT
DateTime_Computer,Latitude,Longitude,Temperature,Conductivity,Pressure,DateTime_Instrument
DateTime_Computer,Latitude,Longitude,degC,S m-1,dbar,DateTime_Instrument
2022-06-11T00:02:18Z,42.805,6.029,13.3004,4.60035,2470.567,2022-6-11T02:04:01Z
2022-06-11T00:05:21Z,42.805,6.029,13.3004,4.60035,2470.53,2022-6-11T02:07:04Z
2022-06-11T00:08:24Z,42.805,6.029,13.3006,4.60033,2470.553,2022-6-11T02:10:07Z
2022-06-11T00:11:27Z,42.805,6.029,13.3004,4.60033,2470.567,2022-6-11T02:13:10Z
2022-06-11T00:14:30Z,42.805,6.029,13.3004,4.60034,2470.553,2022-6-11T02:16:13Z
2022-06-11T00:17:34Z,42.805,6.029,13.3000,4.60035,2470.567,2022-6-11T02:19:17Z
2022-06-11T00:20:37Z,42.805,6.029,13.3006,4.60033,2470.53,2022-6-11T02:22:20Z
2022-06-11T00:23:40Z,42.805,6.029,13.2999,4.60033,2470.577,2022-6-11T02:25:23Z
2022-06-11T00:26:43Z,42.805,6.029,13.3002,4.60033,2470.544,2022-6-11T02:28:26Z
2022-06-11T00:29:46Z,42.805,6.029,13.3002,4.60033,2470.553,2022-6-11T02:31:29Z
2022-06-11T00:32:49Z,42.805,6.029,13.3003,4.60033,2470.53,2022-6-11T02:34:32Z
2022-06-11T00:35:52Z,42.805,6.029,13.3005,4.60034,2470.553,2022-6-11T02:37:35Z
2022-06-11T00:38:55Z,42.805,6.029,13.2999,4.60033,2470.553,2022-6-11T02:40:38Z
2022-06-11T00:41:59Z,42.805,6.029,13.3003,4.60033,2470.553,2022-6-11T02:43:42Z
2022-06-11T00:45:02Z,42.805,6.029,13.3005,4.60033,2470.553,2022-6-11T02:46:45Z
2022-06-11T00:48:05Z,42.805,6.029,13.3006,4.60033,2470.567,2022-6-11T02:49:48Z
2022-06-11T00:51:08Z,42.805,6.029,13.3006,4.60033,2470.553,2022-6-11T02:52:51Z
2022-06-11T00:54:11Z,42.805,6.029,13.3004,4.60032,2470.553,2022-6-11T02:55:54Z
2022-06-11T00:57:14Z,42.805,6.029,13.3004,4.60033,2470.577,2022-6-11T02:58:57Z
2022-06-11T01:00:17Z,42.805,6.029,13.3001,4.60033,2470.567,2022-6-11T03:02:00Z
2022-06-11T01:03:20Z,42.805,6.029,13.3002,4.60034,2470.577,2022-6-11T03:05:03Z
2022-06-11T01:06:23Z,42.805,6.029,13.3001,4.60033,2470.6,2022-6-11T03:08:07Z
2022-06-11T01:09:27Z,42.805,6.029,13.3000,4.60033,2470.614,2022-6-11T03:11:10Z
2022-06-11T01:12:30Z,42.805,6.029,13.3000,4.60033,2470.577,2022-6-11T03:14:13Z
2022-06-11T01:15:33Z,42.805,6.029,13.3004,4.60034,2470.6,2022-6-11T03:17:16Z
2022-06-11T01:18:36Z,42.805,6.029,13.3004,4.60033,2470.577,2022-6-11T03:20:19Z
2022-06-11T01:21:39Z,42.805,6.029,13.3001,4.60032,2470.614,2022-6-11T03:23:22Z
2022-06-11T01:24:42Z,42.805,6.029,13.3000,4.60033,2470.577,2022-6-11T03:26:25Z
2022-06-11T01:27:45Z,42.805,6.029,13.3004,4.60033,2470.6,2022-6-11T03:29:28Z
2022-06-11T01:30:48Z,42.805,6.029,13.3003,4.60033,2470.614,2022-6-11T03:32:32Z
2022-06-11T01:33:52Z,42.805,6.029,13.3004,4.60033,2470.614,2022-6-11T03:35:35Z
2022-06-11T01:36:55Z,42.805,6.029,13.3002,4.60034,2470.624,2022-6-11T03:38:38Z
2022-06-11T01:39:58Z,42.805,6.029,13.3000,4.60033,2470.577,2022-6-11T03:41:41Z
2022-06-11T01:43:01Z,42.805,6.029,13.3002,4.60033,2470.6,2022-6-11T03:44:44Z
2022-06-11T01:46:04Z,42.805,6.029,13.3000,4.60034,2470.577,2022-6-11T03:47:47Z
2022-06-11T01:49:07Z,42.805,6.029,13.3002,4.60035,2470.577,2022-6-11T03:50:50Z
2022-06-11T01:52:10Z,42.805,6.029,13.3002,4.60033,2470.6,2022-6-11T03:53:53Z
2022-06-11T01:55:13Z,42.805,6.029,13.3003,4.60033,2470.6,2022-6-11T03:56:57Z
2022-06-11T01:58:17Z,42.805,6.029,13.3003,4.60034,2470.6,2022-6-11T04:00:00Z
2022-06-11T02:01:20Z,42.805,6.029,13.3006,4.60033,2470.637,2022-6-11T04:03:03Z
2022-06-11T02:04:23Z,42.805,6.029,13.3003,4.60033,2470.6,2022-6-11T04:06:06Z
2022-06-11T02:07:26Z,42.805,6.029,13.3003,4.60036,2470.614,2022-6-11T04:09:09Z
2022-06-11T02:10:29Z,42.805,6.029,13.3007,4.60033,2470.6,2022-6-11T04:12:12Z
2022-06-11T02:13:32Z,42.805,6.029,13.3003,4.60034,2470.6,2022-6-11T04:15:15Z
2022-06-11T02:16:35Z,42.805,6.029,13.3008,4.60032,2470.614,2022-6-11T04:18:18Z
2022-06-11T02:19:38Z,42.805,6.029,13.3002,4.60033,2470.591,2022-6-11T04:21:21Z
2022-06-11T02:22:42Z,42.805,6.029,13.3000,4.60034,2470.624,2022-6-11T04:24:25Z
2022-06-11T02:25:45Z,42.805,6.029,13.3004,4.60033,2470.6,2022-6-11T04:27:28Z
2022-06-11T02:28:48Z,42.805,6.029,13.3000,4.60033,2470.624,2022-6-11T04:30:31Z
2022-06-11T02:31:51Z,42.805,6.029,13.3001,4.60034,2470.661,2022-6-11T04:33:34Z
2022-06-11T02:34:54Z,42.805,6.029,13.3001,4.60035,2470.624,2022-6-11T04:36:37Z
2022-06-11T02:37:57Z,42.805,6.029,13.3000,4.60033,2470.624,2022-6-11T04:39:40Z
2022-06-11T02:41:00Z,42.805,6.029,13.3001,4.60033,2470.637,2022-6-11T04:42:43Z
2022-06-11T02:44:03Z,42.805,6.029,13.3001,4.60033,2470.614,2022-6-11T04:45:46Z
2022-06-11T02:47:06Z,42.805,6.029,13.3001,4.60033,2470.637,2022-6-11T04:48:50Z
2022-06-11T02:50:10Z,42.805,6.029,13.3001,4.60033,2470.624,2022-6-11T04:51:53Z
2022-06-11T02:53:13Z,42.805,6.029,13.3003,4.60033,2470.614,2022-6-11T04:54:56Z
2022-06-11T02:56:16Z,42.805,6.029,13.3004,4.60033,2470.646,2022-6-11T04:57:59Z
2022-06-11T02:59:19Z,42.805,6.029,13.3000,4.60033,2470.646,2022-6-11T05:01:02Z
2022-06-11T03:02:22Z,42.805,6.029,13.3004,4.60033,2470.661,2022-6-11T05:04:05Z
2022-06-11T03:05:25Z,42.805,6.029,13.3004,4.60035,2470.67,2022-6-11T05:07:08Z
2022-06-11T03:08:28Z,42.805,6.029,13.3003,4.60034,2470.637,2022-6-11T05:10:11Z
2022-06-11T03:11:31Z,42.805,6.029,13.3001,4.60034,2470.624,2022-6-11T05:13:15Z
2022-06-11T03:14:35Z,42.805,6.029,13.3004,4.60033,2470.646,2022-6-11T05:16:18Z
2022-06-11T03:17:38Z,42.805,6.029,13.2998,4.60033,2470.646,2022-6-11T05:19:21Z
2022-06-11T03:20:41Z,42.805,6.029,13.3003,4.60034,2470.624,2022-6-11T05:22:24Z
2022-06-11T03:23:44Z,42.805,6.029,13.3003,4.60034,2470.661,2022-6-11T05:25:27Z
2022-06-11T03:26:47Z,42.805,6.029,13.3000,4.60033,2470.67,2022-6-11T05:28:30Z
2022-06-11T03:29:50Z,42.805,6.029,13.3005,4.60035,2470.646,2022-6-11T05:31:33Z
2022-06-11T03:32:53Z,42.805,6.029,13.3005,4.60036,2470.646,2022-6-11T05:34:36Z
2022-06-11T03:35:56Z,42.805,6.029,13.2998,4.60033,2470.67,2022-6-11T05:37:39Z
2022-06-11T03:39:00Z,42.805,6.029,13.3004,4.60033,2470.624,2022-6-11T05:40:43Z
2022-06-11T03:42:03Z,42.805,6.029,13.3002,4.60034,2470.646,2022-6-11T05:43:46Z
2022-06-11T03:45:06Z,42.805,6.029,13.3003,4.60036,2470.67,2022-6-11T05:46:49Z
2022-06-11T03:48:09Z,42.805,6.029,13.3002,4.60034,2470.646,2022-6-11T05:49:52Z
2022-06-11T03:51:12Z,42.805,6.029,13.3004,4.60033,2470.684,2022-6-11T05:52:55Z
2022-06-11T03:54:15Z,42.805,6.029,13.3005,4.60034,2470.67,2022-6-11T05:55:58Z
2022-06-11T03:57:18Z,42.805,6.029,13.3004,4.60034,2470.684,2022-6-11T05:59:01Z
2022-06-11T04:00:21Z,42.805,6.029,13.3002,4.60034,2470.624,2022-6-11T06:02:04Z
2022-06-11T04:03:25Z,42.805,6.029,13.3004,4.60033,2470.646,2022-6-11T06:05:08Z
2022-06-11T04:06:28Z,42.805,6.029,13.3003,4.60033,2470.67,2022-6-11T06:08:11Z
2022-06-11T04:09:31Z,42.805,6.029,13.3000,4.60034,2470.707,2022-6-11T06:11:14Z
2022-06-11T04:12:34Z,42.805,6.029,13.3003,4.60033,2470.67,2022-6-11T06:14:17Z
2022-06-11T04:15:37Z,42.805,6.029,13.3005,4.60033,2470.707,2022-6-11T06:17:20Z
2022-06-11T04:18:40Z,42.805,6.029,13.3003,4.60034,2470.637,2022-6-11T06:20:23Z
2022-06-11T04:21:43Z,42.805,6.029,13.3006,4.60034,2470.646,2022-6-11T06:23:26Z
2022-06-11T04:24:46Z,42.805,6.029,13.3008,4.60038,2470.67,2022-6-11T06:26:29Z
2022-06-11T04:27:49Z,42.805,6.029,13.3004,4.60037,2470.633,2022-6-11T06:29:33Z
2022-06-11T04:30:53Z,42.805,6.029,13.3000,4.60035,2470.67,2022-6-11T06:32:36Z
2022-06-11T04:33:56Z,42.805,6.029,13.3004,4.60034,2470.646,2022-6-11T06:35:39Z
2022-06-11T04:36:59Z,42.805,6.029,13.3004,4.60034,2470.67,2022-6-11T06:38:42Z
2022-06-11T04:40:02Z,42.805,6.029,13.3002,4.60034,2470.661,2022-6-11T06:41:45Z
2022-06-11T04:43:05Z,42.805,6.029,13.3005,4.60036,2470.684,2022-6-11T06:44:48Z
2022-06-11T04:46:08Z,42.805,6.029,13.3006,4.60035,2470.693,2022-6-11T06:47:51Z
2022-06-11T04:49:11Z,42.805,6.029,13.3000,4.60035,2470.646,2022-6-11T06:50:54Z
2022-06-11T04:52:14Z,42.805,6.029,13.3004,4.60033,2470.661,2022-6-11T06:53:58Z
2022-06-11T04:55:18Z,42.805,6.029,13.3002,4.60033,2470.67,2022-6-11T06:57:01Z
2022-06-11T04:58:21Z,42.805,6.029,13.3003,4.60035,2470.661,2022-6-11T07:00:04Z
2022-06-11T05:01:24Z,42.805,6.029,13.3002,4.60033,2470.646,2022-6-11T07:03:07Z
2022-06-11T05:04:27Z,42.805,6.029,13.3004,4.60034,2470.67,2022-6-11T07:06:10Z
2022-06-11T05:07:30Z,42.805,6.029,13.3004,4.60034,2470.646,2022-6-11T07:09:13Z
2022-06-11T05:10:33Z,42.805,6.029,13.3004,4.60033,2470.646,2022-6-11T07:12:16Z
2022-06-11T05:13:36Z,42.805,6.029,13.3002,4.60033,2470.67,2022-6-11T07:15:19Z
2022-06-11T05:16:39Z,42.805,6.029,13.3003,4.60034,2470.624,2022-6-11T07:18:23Z
2022-06-11T05:19:43Z,42.805,6.029,13.3004,4.60034,2470.661,2022-6-11T07:21:26Z
2022-06-11T05:22:46Z,42.805,6.029,13.3004,4.60035,2470.637,2022-6-11T07:24:29Z
2022-06-11T05:25:49Z,42.805,6.029,13.3006,4.60034,2470.624,2022-6-11T07:27:32Z
2022-06-11T05:28:52Z,42.805,6.029,13.3004,4.60036,2470.67,2022-6-11T07:30:35Z
2022-06-11T05:31:55Z,42.805,6.029,13.3010,4.60034,2470.6,2022-6-11T07:33:38Z
2022-06-11T05:34:58Z,42.805,6.029,13.3002,4.60035,2470.684,2022-6-11T07:36:41Z
2022-06-11T05:38:01Z,42.805,6.029,13.3001,4.60033,2470.624,2022-6-11T07:39:44Z
2022-06-11T05:41:04Z,42.805,6.029,13.3006,4.60033,2470.646,2022-6-11T07:42:48Z
2022-06-11T05:44:08Z,42.805,6.029,13.3006,4.60037,2470.646,2022-6-11T07:45:51Z
2022-06-11T05:47:11Z,42.805,6.029,13.3004,4.60034,2470.624,2022-6-11T07:48:54Z
2022-06-11T05:50:14Z,42.805,6.029,13.3004,4.60033,2470.67,2022-6-11T07:51:57Z
2022-06-11T05:53:17Z,42.805,6.029,13.3007,4.60033,2470.693,2022-6-11T07:55:00Z
2022-06-11T05:56:20Z,42.805,6.029,13.3004,4.60035,2470.624,2022-6-11T07:58:03Z
2022-06-11T05:59:23Z,42.805,6.029,13.3004,4.60033,2470.646,2022-6-11T08:01:06Z
2022-06-11T06:02:26Z,42.805,6.029,13.3001,4.60034,2470.646,2022-6-11T08:04:09Z
2022-06-11T06:05:29Z,42.805,6.029,13.3004,4.60034,2470.624,2022-6-11T08:07:12Z
2022-06-11T06:08:32Z,42.805,6.029,13.3008,4.60034,2470.6,2022-6-11T08:10:16Z
2022-06-11T06:11:36Z,42.805,6.029,13.3002,4.60036,2470.624,2022-6-11T08:13:19Z
2022-06-11T06:14:39Z,42.805,6.029,13.3004,4.60036,2470.637,2022-6-11T08:16:22Z
2022-06-11T06:17:42Z,42.805,6.029,13.3005,4.60034,2470.614,2022-6-11T08:19:25Z
2022-06-11T06:20:45Z,42.805,6.029,13.3004,4.60033,2470.624,2022-6-11T08:22:28Z
2022-06-11T06:23:48Z,42.805,6.029,13.3003,4.60033,2470.6,2022-6-11T08:25:31Z
2022-06-11T06:26:51Z,42.805,6.029,13.3004,4.60033,2470.637,2022-6-11T08:28:34Z
2022-06-11T06:29:54Z,42.805,6.029,13.3006,4.60033,2470.624,2022-6-11T08:31:37Z
2022-06-11T06:32:57Z,42.805,6.029,13.3003,4.60033,2470.637,2022-6-11T08:34:41Z
2022-06-11T06:36:01Z,42.805,6.029,13.3001,4.60033,2470.637,2022-6-11T08:37:44Z
2022-06-11T06:39:04Z,42.805,6.029,13.3002,4.60033,2470.6,2022-6-11T08:40:47Z
2022-06-11T06:42:07Z,42.805,6.029,13.3002,4.60042,2470.614,2022-6-11T08:43:50Z
2022-06-11T06:45:10Z,42.805,6.029,13.3004,4.60033,2470.6,2022-6-11T08:46:53Z
2022-06-11T06:48:13Z,42.805,6.029,13.3006,4.60034,2470.624,2022-6-11T08:49:56Z
2022-06-11T06:51:16Z,42.805,6.029,13.3005,4.60038,2470.6,2022-6-11T08:52:59Z
2022-06-11T06:54:19Z,42.805,6.029,13.3005,4.60033,2470.614,2022-6-11T08:56:02Z
2022-06-11T06:57:22Z,42.805,6.029,13.3006,4.60034,2470.591,2022-6-11T08:59:06Z
2022-06-11T07:00:26Z,42.805,6.029,13.3002,4.60034,2470.614,2022-6-11T09:02:09Z
2022-06-11T07:03:29Z,42.805,6.029,13.3006,4.60034,2470.614,2022-6-11T09:05:12Z
2022-06-11T07:06:32Z,42.805,6.029,13.3003,4.60035,2470.6,2022-6-11T09:08:15Z
2022-06-11T07:09:35Z,42.805,6.029,13.3006,4.60035,2470.577,2022-6-11T09:11:18Z
2022-06-11T07:12:38Z,42.805,6.029,13.3001,4.60039,2470.6,2022-6-11T09:14:21Z
2022-06-11T07:15:41Z,42.805,6.029,13.3005,4.60033,2470.624,2022-6-11T09:17:24Z
2022-06-11T07:18:44Z,42.805,6.029,13.3002,4.60033,2470.553,2022-6-11T09:20:27Z
2022-06-11T07:21:47Z,42.805,6.029,13.3000,4.60038,2470.591,2022-6-11T09:23:30Z
2022-06-11T07:24:51Z,42.805,6.029,13.3007,4.60033,2470.577,2022-6-11T09:26:34Z
2022-06-11T07:27:54Z,42.805,6.029,13.3003,4.60033,2470.591,2022-6-11T09:29:37Z
2022-06-11T07:30:57Z,42.805,6.029,13.3004,4.60033,2470.553,2022-6-11T09:32:40Z
2022-06-11T07:34:00Z,42.805,6.029,13.3004,4.60034,2470.591,2022-6-11T09:35:43Z
2022-06-11T07:37:03Z,42.805,6.029,13.3004,4.60036,2470.53,2022-6-11T09:38:46Z
2022-06-11T07:40:06Z,42.805,6.029,13.3001,4.60033,2470.553,2022-6-11T09:41:49Z
2022-06-11T07:43:09Z,42.805,6.029,13.3002,4.60033,2470.553,2022-6-11T09:44:52Z
2022-06-11T07:46:12Z,42.805,6.029,13.3004,4.60032,2470.614,2022-6-11T09:47:55Z
2022-06-11T07:49:15Z,42.805,6.029,13.3002,4.60033,2470.553,2022-6-11T09:50:59Z
2022-06-11T07:52:19Z,42.805,6.029,13.3000,4.60031,2470.553,2022-6-11T09:54:02Z
2022-06-11T07:55:22Z,42.805,6.029,13.3004,4.60033,2470.577,2022-6-11T09:57:05Z
2022-06-11T07:58:25Z,42.805,6.029,13.3003,4.60032,2470.591,2022-6-11T10:00:08Z
2022-06-11T08:01:28Z,42.805,6.029,13.3004,4.60038,2470.553,2022-6-11T10:03:11Z
2022-06-11T08:04:31Z,42.805,6.029,13.3001,4.60033,2470.567,2022-6-11T10:06:14Z
2022-06-11T08:07:34Z,42.805,6.029,13.3004,4.60033,2470.553,2022-6-11T10:09:17Z
2022-06-11T08:10:37Z,42.805,6.029,13.3006,4.60033,2470.544,2022-6-11T10:12:20Z
2022-06-11T08:13:40Z,42.805,6.029,13.3004,4.60033,2470.53,2022-6-11T10:15:24Z
2022-06-11T08:16:44Z,42.805,6.029,13.3003,4.60032,2470.567,2022-6-11T10:18:27Z
2022-06-11T08:19:47Z,42.805,6.029,13.3002,4.60032,2470.544,2022-6-11T10:21:30Z
2022-06-11T08:22:50Z,42.805,6.029,13.3002,4.60034,2470.553,2022-6-11T10:24:33Z
2022-06-11T08:25:53Z,42.805,6.029,13.3004,4.60032,2470.493,2022-6-11T10:27:36Z
2022-06-11T08:28:56Z,42.805,6.029,13.3002,4.60032,2470.567,2022-6-11T10:30:39Z
2022-06-11T08:31:59Z,42.805,6.029,13.3003,4.60033,2470.53,2022-6-11T10:33:42Z
2022-06-11T08:35:02Z,42.805,6.029,13.3007,4.60033,2470.567,2022-6-11T10:36:45Z
2022-06-11T08:38:05Z,42.805,6.029,13.2997,4.60032,2470.52,2022-6-11T10:39:49Z
2022-06-11T08:41:09Z,42.805,6.029,13.3003,4.60032,2470.53,2022-6-11T10:42:52Z
2022-06-11T08:44:12Z,42.805,6.029,13.3002,4.60032,2470.53,2022-6-11T10:45:55Z
2022-06-11T08:47:15Z,42.805,6.029,13.3003,4.60032,2470.544,2022-6-11T10:48:58Z
2022-06-11T08:50:18Z,42.805,6.029,13.3002,4.60032,2470.52,2022-6-11T10:52:01Z
2022-06-11T08:53:21Z,42.805,6.029,13.3004,4.60032,2470.52,2022-6-11T10:55:04Z
2022-06-11T08:56:24Z,42.805,6.029,13.3004,4.60032,2470.507,2022-6-11T10:58:07Z
2022-06-11T08:59:27Z,42.805,6.029,13.3003,4.60033,2470.544,2022-6-11T11:01:10Z
2022-06-11T09:02:30Z,42.805,6.029,13.3004,4.60032,2470.52,2022-6-11T11:04:14Z
2022-06-11T09:05:34Z,42.805,6.029,13.3002,4.60032,2470.483,2022-6-11T11:07:17Z
2022-06-11T09:08:37Z,42.805,6.029,13.3003,4.60033,2470.516,2022-6-11T11:10:20Z
2022-06-11T09:11:40Z,42.805,6.029,13.3003,4.60033,2470.53,2022-6-11T11:13:23Z
2022-06-11T09:14:43Z,42.805,6.029,13.3003,4.60032,2470.544,2022-6-11T11:16:26Z
2022-06-11T09:17:46Z,42.805,6.029,13.3005,4.60032,2470.53,2022-6-11T11:19:29Z
2022-06-11T09:20:49Z,42.805,6.029,13.3002,4.60033,2470.497,2022-6-11T11:22:32Z
2022-06-11T09:23:52Z,42.805,6.029,13.3001,4.60031,2470.544,2022-6-11T11:25:35Z
2022-06-11T09:26:55Z,42.805,6.029,13.3002,4.60032,2470.507,2022-6-11T11:28:39Z
2022-06-11T09:29:59Z,42.805,6.029,13.2999,4.60033,2470.483,2022-6-11T11:31:42Z
2022-06-11T09:33:02Z,42.805,6.029,13.3002,4.60031,2470.497,2022-6-11T11:34:45Z
2022-06-11T09:36:05Z,42.805,6.029,13.3004,4.60032,2470.544,2022-6-11T11:37:48Z
2022-06-11T09:39:08Z,42.805,6.029,13.3000,4.60032,2470.53,2022-6-11T11:40:51Z
2022-06-11T09:42:11Z,42.805,6.029,13.3005,4.60031,2470.483,2022-6-11T11:43:54Z
2022-06-11T09:45:14Z,42.805,6.029,13.3000,4.60032,2470.507,2022-6-11T11:46:57Z
2022-06-11T09:48:17Z,42.805,6.029,13.3004,4.60031,2470.507,2022-6-11T11:50:00Z
2022-06-11T09:51:21Z,42.805,6.029,13.2999,4.60031,2470.483,2022-6-11T11:53:04Z
2022-06-11T09:54:24Z,42.805,6.029,13.2999,4.60033,2470.483,2022-6-11T11:56:07Z
2022-06-11T09:57:27Z,42.805,6.029,13.2998,4.60031,2470.507,2022-6-11T11:59:10Z
2022-06-11T10:00:30Z,42.805,6.029,13.3001,4.60032,2470.52,2022-6-11T12:02:13Z
2022-06-11T10:03:33Z,42.805,6.029,13.3002,4.60031,2470.483,2022-6-11T12:05:16Z
2022-06-11T10:06:36Z,42.805,6.029,13.3004,4.60031,2470.483,2022-6-11T12:08:19Z
2022-06-11T10:09:39Z,42.805,6.029,13.2998,4.60031,2470.507,2022-6-11T12:11:22Z
2022-06-11T10:12:42Z,42.805,6.029,13.3003,4.60031,2470.497,2022-6-11T12:14:25Z
2022-06-11T10:15:45Z,42.805,6.029,13.3000,4.60031,2470.483,2022-6-11T12:17:29Z
2022-06-11T10:18:49Z,42.805,6.029,13.3000,4.60031,2470.437,2022-6-11T12:20:32Z
2022-06-11T10:21:52Z,42.805,6.029,13.3001,4.60031,2470.497,2022-6-11T12:23:35Z
2022-06-11T10:24:55Z,42.805,6.029,13.3000,4.60031,2470.46,2022-6-11T12:26:38Z
2022-06-11T10:27:58Z,42.805,6.029,13.3000,4.60030,2470.474,2022-6-11T12:29:41Z
2022-06-11T10:31:01Z,42.805,6.029,13.3000,4.60031,2470.497,2022-6-11T12:32:44Z
2022-06-11T10:34:04Z,42.805,6.029,13.3004,4.60031,2470.483,2022-6-11T12:35:47Z
2022-06-11T10:37:07Z,42.805,6.029,13.3004,4.60036,2470.46,2022-6-11T12:38:50Z
2022-06-11T10:40:11Z,42.805,6.029,13.3003,4.60031,2470.46,2022-6-11T12:41:54Z
2022-06-11T10:43:14Z,42.805,6.029,13.2999,4.60031,2470.45,2022-6-11T12:44:57Z
2022-06-11T10:46:17Z,42.805,6.029,13.3001,4.60033,2470.474,2022-6-11T12:48:00Z
2022-06-11T10:49:20Z,42.805,6.029,13.3003,4.60031,2470.483,2022-6-11T12:51:03Z
2022-06-11T10:52:23Z,42.805,6.029,13.3003,4.60031,2470.483,2022-6-11T12:54:06Z
2022-06-11T10:55:26Z,42.805,6.029,13.3000,4.60031,2470.437,2022-6-11T12:57:09Z
2022-06-11T10:58:29Z,42.805,6.029,13.3003,4.60030,2470.483,2022-6-11T13:00:12Z
2022-06-11T11:01:32Z,42.805,6.029,13.3004,4.60031,2470.46,2022-6-11T13:03:15Z
2022-06-11T11:04:35Z,42.805,6.029,13.3000,4.60031,2470.46,2022-6-11T13:06:19Z
2022-06-11T11:07:39Z,42.805,6.029,13.3005,4.60030,2470.437,2022-6-11T13:09:22Z
2022-06-11T11:10:42Z,42.805,6.029,13.3002,4.60029,2470.483,2022-6-11T13:12:25Z
2022-06-11T11:13:45Z,42.805,6.029,13.3000,4.60031,2470.45,2022-6-11T13:15:28Z
2022-06-11T11:16:48Z,42.805,6.029,13.3006,4.60032,2470.474,2022-6-11T13:18:31Z
2022-06-11T11:19:51Z,42.805,6.029,13.3006,4.60031,2470.46,2022-6-11T13:21:34Z
2022-06-11T11:22:54Z,42.805,6.029,13.3008,4.60031,2470.437,2022-6-11T13:24:37Z
2022-06-11T11:25:57Z,42.805,6.029,13.3006,4.60031,2470.45,2022-6-11T13:27:40Z
2022-06-11T11:29:00Z,42.805,6.029,13.3000,4.60032,2470.474,2022-6-11T13:30:44Z
2022-06-11T11:32:04Z,42.805,6.029,13.3000,4.60031,2470.483,2022-6-11T13:33:47Z
2022-06-11T11:35:07Z,42.805,6.029,13.3006,4.60031,2470.483,2022-6-11T13:36:50Z
2022-06-11T11:38:10Z,42.805,6.029,13.3004,4.60031,2470.507,2022-6-11T13:39:53Z
2022-06-11T11:41:13Z,42.805,6.029,13.2998,4.60031,2470.46,2022-6-11T13:42:56Z
2022-06-11T11:44:16Z,42.805,6.029,13.3001,4.60031,2470.46,2022-6-11T13:45:59Z
2022-06-11T11:47:19Z,42.805,6.029,13.3002,4.60030,2470.483,2022-6-11T13:49:02Z
2022-06-11T11:50:22Z,42.805,6.029,13.2999,4.60029,2470.46,2022-6-11T13:52:05Z
2022-06-11T11:53:25Z,42.805,6.029,13.3000,4.60031,2470.497,2022-6-11T13:55:09Z
2022-06-11T11:56:29Z,42.805,6.029,13.3003,4.60031,2470.483,2022-6-11T13:58:12Z
2022-06-11T11:59:32Z,42.805,6.029,13.2999,4.60031,2470.497,2022-6-11T14:01:15Z
2022-06-11T12:02:35Z,42.805,6.029,13.3001,4.60031,2470.52,2022-6-11T14:04:18Z
2022-06-11T12:05:38Z,42.805,6.029,13.3003,4.60033,2470.483,2022-6-11T14:07:21Z
2022-06-11T12:08:41Z,42.805,6.029,13.3000,4.60031,2470.507,2022-6-11T14:10:24Z
2022-06-11T12:11:44Z,42.805,6.029,13.3003,4.60031,2470.46,2022-6-11T14:13:27Z
2022-06-11T12:14:47Z,42.805,6.029,13.3003,4.60031,2470.474,2022-6-11T14:16:30Z
2022-06-11T12:17:50Z,42.805,6.029,13.3002,4.60033,2470.474,2022-6-11T14:19:34Z
2022-06-11T12:20:54Z,42.805,6.029,13.3000,4.60030,2470.483,2022-6-11T14:22:37Z
2022-06-11T12:23:57Z,42.805,6.029,13.3001,4.60030,2470.483,2022-6-11T14:25:40Z
2022-06-11T12:27:00Z,42.805,6.029,13.3005,4.60031,2470.483,2022-6-11T14:28:43Z
2022-06-11T12:30:03Z,42.805,6.029,13.3002,4.60033,2470.474,2022-6-11T14:31:46Z
2022-06-11T12:33:06Z,42.805,6.029,13.3001,4.60032,2470.483,2022-6-11T14:34:49Z
2022-06-11T12:36:09Z,42.805,6.029,13.3005,4.60030,2470.483,2022-6-11T14:37:52Z
2022-06-11T12:39:12Z,42.805,6.029,13.3001,4.60031,2470.497,2022-6-11T14:40:56Z
2022-06-11T12:42:16Z,42.805,6.029,13.2999,4.60030,2470.483,2022-6-11T14:43:59Z
2022-06-11T12:45:19Z,42.805,6.029,13.3002,4.60030,2470.483,2022-6-11T14:47:02Z
2022-06-11T12:48:22Z,42.805,6.029,13.3002,4.60032,2470.483,2022-6-11T14:50:05Z
2022-06-11T12:51:25Z,42.805,6.029,13.3004,4.60031,2470.507,2022-6-11T14:53:08Z
2022-06-11T12:54:28Z,42.805,6.029,13.3000,4.60030,2470.474,2022-6-11T14:56:11Z
2022-06-11T12:57:31Z,42.805,6.029,13.3000,4.60031,2470.507,2022-6-11T14:59:14Z
2022-06-11T13:00:34Z,42.805,6.029,13.3002,4.60031,2470.52,2022-6-11T15:02:17Z
2022-06-11T13:03:37Z,42.805,6.029,13.3000,4.60032,2470.497,2022-6-11T15:05:20Z
2022-06-11T13:06:41Z,42.805,6.029,13.3000,4.60031,2470.497,2022-6-11T15:08:24Z
2022-06-11T13:09:44Z,42.805,6.029,13.3000,4.60033,2470.507,2022-6-11T15:11:27Z
2022-06-11T13:12:47Z,42.805,6.029,13.3000,4.60033,2470.507,2022-6-11T15:14:30Z
2022-06-11T13:15:50Z,42.805,6.029,13.3000,4.60031,2470.53,2022-6-11T15:17:33Z
2022-06-11T13:18:53Z,42.805,6.029,13.3004,4.60032,2470.483,2022-6-11T15:20:36Z
2022-06-11T13:21:56Z,42.805,6.029,13.3000,4.60029,2470.483,2022-6-11T15:23:39Z
2022-06-11T13:24:59Z,42.805,6.029,13.2998,4.60032,2470.544,2022-6-11T15:26:42Z
2022-06-11T13:28:02Z,42.805,6.029,13.2997,4.60031,2470.507,2022-6-11T15:29:46Z
2022-06-11T13:31:06Z,42.805,6.029,13.3001,4.60031,2470.507,2022-6-11T15:32:49Z
2022-06-11T13:34:09Z,42.805,6.029,13.3004,4.60032,2470.53,2022-6-11T15:35:52Z
2022-06-11T13:37:12Z,42.805,6.029,13.3004,4.60031,2470.52,2022-6-11T15:38:55Z
2022-06-11T13:40:15Z,42.805,6.029,13.3001,4.60032,2470.544,2022-6-11T15:41:58Z
2022-06-11T13:43:18Z,42.805,6.029,13.2997,4.60031,2470.567,2022-6-11T15:45:01Z
2022-06-11T13:46:21Z,42.805,6.029,13.2998,4.60031,2470.553,2022-6-11T15:48:04Z
2022-06-11T13:49:24Z,42.805,6.029,13.3005,4.60031,2470.53,2022-6-11T15:51:07Z
2022-06-11T13:52:27Z,42.805,6.029,13.3002,4.60030,2470.52,2022-6-11T15:54:11Z
2022-06-11T13:55:31Z,42.805,6.029,13.3001,4.60032,2470.553,2022-6-11T15:57:14Z
2022-06-11T13:58:34Z,42.805,6.029,13.3000,4.60033,2470.567,2022-6-11T16:00:17Z
2022-06-11T14:01:37Z,42.805,6.029,13.3002,4.60031,2470.507,2022-6-11T16:03:20Z
2022-06-11T14:04:40Z,42.805,6.029,13.2999,4.60033,2470.53,2022-6-11T16:06:23Z
2022-06-11T14:07:43Z,42.805,6.029,13.3000,4.60032,2470.553,2022-6-11T16:09:26Z
2022-06-11T14:10:46Z,42.805,6.029,13.3002,4.60031,2470.553,2022-6-11T16:12:29Z
2022-06-11T14:13:49Z,42.805,6.029,13.3001,4.60031,2470.553,2022-6-11T16:15:32Z
2022-06-11T14:16:52Z,42.805,6.029,13.3000,4.60031,2470.567,2022-6-11T16:18:36Z
2022-06-11T14:19:56Z,42.805,6.029,13.3002,4.60032,2470.567,2022-6-11T16:21:39Z
2022-06-11T14:22:59Z,42.805,6.029,13.3001,4.60031,2470.567,2022-6-11T16:24:42Z
2022-06-11T14:26:02Z,42.805,6.029,13.2998,4.60031,2470.6,2022-6-11T16:27:45Z
2022-06-11T14:29:05Z,42.805,6.029,13.3002,4.60031,2470.544,2022-6-11T16:30:48Z
2022-06-11T14:32:08Z,42.805,6.029,13.2999,4.60031,2470.553,2022-6-11T16:33:51Z
2022-06-11T14:35:11Z,42.805,6.029,13.3001,4.60031,2470.591,2022-6-11T16:36:54Z
2022-06-11T14:38:14Z,42.805,6.029,13.3003,4.60031,2470.577,2022-6-11T16:39:57Z
2022-06-11T14:41:17Z,42.805,6.029,13.3006,4.60031,2470.591,2022-6-11T16:43:01Z
2022-06-11T14:44:21Z,42.805,6.029,13.3002,4.60033,2470.614,2022-6-11T16:46:04Z
2022-06-11T14:47:24Z,42.805,6.029,13.3002,4.60033,2470.553,2022-6-11T16:49:07Z
2022-06-11T14:50:27Z,42.805,6.029,13.3006,4.60031,2470.577,2022-6-11T16:52:10Z
2022-06-11T14:53:30Z,42.805,6.029,13.2999,4.60033,2470.577,2022-6-11T16:55:13Z
2022-06-11T14:56:33Z,42.805,6.029,13.3004,4.60031,2470.637,2022-6-11T16:58:16Z
2022-06-11T14:59:36Z,42.805,6.029,13.3002,4.60031,2470.624,2022-6-11T17:01:19Z
2022-06-11T15:02:39Z,42.805,6.029,13.2998,4.60031,2470.6,2022-6-11T17:04:22Z
2022-06-11T15:05:42Z,42.805,6.029,13.3004,4.60031,2470.624,2022-6-11T17:07:26Z
2022-06-11T15:08:46Z,42.805,6.029,13.3001,4.60031,2470.577,2022-6-11T17:10:29Z
2022-06-11T15:11:49Z,42.805,6.029,13.3004,4.60031,2470.6,2022-6-11T17:13:32Z
2022-06-11T15:14:52Z,42.805,6.029,13.3003,4.60031,2470.6,2022-6-11T17:16:35Z